Time,TemperatureF,DewpointF,PressureIn,WindDirection,WindDirectionDegrees,WindSpeedMPH,WindSpeedGustMPH,Humidity,HourlyPrecipIn,Conditions,Clouds,dailyrainin,SoftwareType,DateUTC
2013-06-06 00:05:00,64.5,51.6,29.80,ESE,114,1.0,3.0,63,0.00,,,0.00,Wunderground v.1.15,2013-06-06 05:05:00,
2013-06-06 00:35:00,64.0,51.6,29.79,ESE,103,0.0,0.0,64,0.00,,,0.00,Wunderground v.1.15,2013-06-06 05:35:00,
2013-06-06 01:05:00,63.5,51.1,29.79,ESE,123,2.0,2.0,64,0.00,,,0.00,Wunderground v.1.15,2013-06-06 06:05:00,
2013-06-06 01:35:00,63.1,49.4,29.79,ESE,103,1.0,2.0,61,0.00,,,0.00,Wunderground v.1.15,2013-06-06 06:35:00,
2013-06-06 02:05:00,62.7,49.1,29.78,NE,51,2.0,2.0,61,0.00,,,0.00,Wunderground v.1.15,2013-06-06 07:05:00,
2013-06-06 02:35:00,62.3,46.9,29.78,East,99,1.0,1.0,57,0.00,,,0.00,Wunderground v.1.15,2013-06-06 07:35:00,
2013-06-06 03:05:00,61.8,47.3,29.76,ESE,119,2.0,4.0,59,0.00,,,0.00,Wunderground v.1.15,2013-06-06 08:05:00,
2013-06-06 03:35:00,61.5,46.1,29.76,East,82,2.0,3.0,57,0.00,,,0.00,Wunderground v.1.15,2013-06-06 08:35:00,
2013-06-06 04:05:00,60.9,46.0,29.76,ESE,121,2.0,2.0,58,0.00,,,0.00,Wunderground v.1.15,2013-06-06 09:05:00,
2013-06-06 04:35:00,60.5,47.0,29.75,East,82,2.0,5.0,61,0.00,,,0.00,Wunderground v.1.15,2013-06-06 09:35:00,
2013-06-06 05:05:00,60.2,48.0,29.75,East,97,2.0,2.0,64,0.00,,,0.00,Wunderground v.1.15,2013-06-06 10:05:00,
2013-06-06 05:35:00,59.9,48.1,29.75,East,86,2.0,2.0,65,0.00,,,0.00,Wunderground v.1.15,2013-06-06 10:35:00,
2013-06-06 06:05:00,59.9,48.5,29.76,ENE,78,2.0,2.0,66,0.00,,,0.00,Wunderground v.1.15,2013-06-06 11:05:00,
2013-06-06 06:35:00,60.1,49.5,29.77,ESE,106,2.0,2.0,68,0.00,,,0.00,Wunderground v.1.15,2013-06-06 11:35:00,
2013-06-06 07:05:00,60.2,49.6,29.76,ESE,106,3.0,3.0,68,0.00,,,0.00,Wunderground v.1.15,2013-06-06 12:05:00,
2013-06-06 07:35:00,60.7,50.9,29.76,SE,131,2.0,4.0,70,0.00,,,0.00,Wunderground v.1.15,2013-06-06 12:35:00,
2013-06-06 08:05:00,61.5,51.2,29.76,North,0,2.0,5.0,69,0.00,,,0.00,Wunderground v.1.15,2013-06-06 13:05:00,
2013-06-06 08:35:00,62.7,52.8,29.77,East,83,1.0,1.0,70,0.00,,,0.00,Wunderground v.1.15,2013-06-06 13:35:00,
2013-06-06 09:05:00,64.0,53.6,29.77,ENE,73,1.0,1.0,69,0.00,,,0.00,Wunderground v.1.15,2013-06-06 14:05:00,
2013-06-06 09:35:00,65.8,54.9,29.77,East,82,1.0,1.0,68,0.00,,,0.00,Wunderground v.1.15,2013-06-06 14:35:00,
2013-06-06 10:05:00,67.4,55.2,29.75,NE,47,1.0,1.0,65,0.00,,,0.00,Wunderground v.1.15,2013-06-06 15:05:00,
2013-06-06 10:35:00,68.6,55.9,29.75,ENE,58,0.0,0.0,64,0.00,,,0.00,Wunderground v.1.15,2013-06-06 15:35:00,
2013-06-06 11:05:00,69.6,55.6,29.77,NNE,27,0.0,0.0,61,0.00,,,0.00,Wunderground v.1.15,2013-06-06 16:05:00,
2013-06-06 11:35:00,67.6,55.8,29.77,WNW,285,5.0,5.0,66,0.00,,,0.00,Wunderground v.1.15,2013-06-06 16:35:00,
2013-06-06 12:05:00,63.2,55.1,29.78,North,352,6.0,6.0,75,0.00,,,0.00,Wunderground v.1.15,2013-06-06 17:05:00,
2013-06-06 12:35:00,59.6,56.7,29.78,North,11,4.0,6.0,90,0.00,,,0.01,Wunderground v.1.15,2013-06-06 17:35:00,
2013-06-06 13:05:00,59.3,56.7,29.77,NNE,31,1.0,1.0,91,0.00,,,0.01,Wunderground v.1.15,2013-06-06 18:05:00,
2013-06-06 13:35:00,60.2,57.6,29.76,NNE,14,2.0,5.0,91,0.00,,,0.02,Wunderground v.1.15,2013-06-06 18:35:00,
2013-06-06 14:05:00,62.3,58.7,29.75,North,4,3.0,9.0,88,0.00,,,0.02,Wunderground v.1.15,2013-06-06 19:05:00,
2013-06-06 14:35:00,65.2,58.2,29.75,North,8,3.0,5.0,78,0.00,,,0.02,Wunderground v.1.15,2013-06-06 19:35:00,
2013-06-06 15:05:00,66.6,57.3,29.75,North,0,3.0,3.0,72,0.00,,,0.02,Wunderground v.1.15,2013-06-06 20:05:00,
2013-06-06 15:35:00,65.8,55.3,29.76,NNE,20,4.0,4.0,69,0.00,,,0.02,Wunderground v.1.15,2013-06-06 20:35:00,
2013-06-06 16:05:00,64.7,54.3,29.76,North,359,7.0,11.0,69,0.00,,,0.02,Wunderground v.1.15,2013-06-06 21:05:00,
2013-06-06 16:35:00,64.0,54.8,29.76,North,0,6.0,6.0,72,0.00,,,0.02,Wunderground v.1.15,2013-06-06 21:35:00,
2013-06-06 17:05:00,64.0,54.8,29.77,NNE,23,6.0,6.0,72,0.00,,,0.02,Wunderground v.1.15,2013-06-06 22:05:00,
2013-06-06 17:35:00,63.9,53.5,29.76,NNE,13,5.0,17.0,69,0.00,,,0.02,Wunderground v.1.15,2013-06-06 22:35:00,
2013-06-06 18:05:00,63.4,54.2,29.77,NNE,17,7.0,7.0,72,0.00,,,0.02,Wunderground v.1.15,2013-06-06 23:05:00,
2013-06-06 18:35:00,62.0,54.0,29.77,North,3,6.0,11.0,75,0.00,,,0.02,Wunderground v.1.15,2013-06-06 23:35:00,
2013-06-06 19:05:00,60.5,53.3,29.77,North,0,5.0,6.0,77,0.00,,,0.02,Wunderground v.1.15,2013-06-07 00:05:00,
2013-06-06 19:35:00,58.0,51.9,29.78,North,357,6.0,7.0,80,0.00,,,0.02,Wunderground v.1.15,2013-06-07 00:35:00,
2013-06-06 20:05:00,55.7,51.3,29.78,NNE,20,7.0,7.0,85,0.00,,,0.02,Wunderground v.1.15,2013-06-07 01:05:00,
2013-06-06 20:35:00,54.1,50.3,29.78,North,1,7.0,10.0,87,0.00,,,0.02,Wunderground v.1.15,2013-06-07 01:35:00,
2013-06-06 21:05:00,53.3,50.1,29.79,North,0,4.0,8.0,89,0.00,,,0.02,Wunderground v.1.15,2013-06-07 02:05:00,
2013-06-06 21:35:00,53.2,50.0,29.80,NNW,346,4.0,7.0,89,0.00,,,0.02,Wunderground v.1.15,2013-06-07 02:35:00,
2013-06-06 22:05:00,53.1,49.9,29.80,North,10,3.0,3.0,89,0.00,,,0.02,Wunderground v.1.15,2013-06-07 03:05:00,
2013-06-06 22:35:00,52.9,49.7,29.80,North,359,3.0,7.0,89,0.00,,,0.02,Wunderground v.1.15,2013-06-07 03:35:00,
2013-06-06 23:05:00,52.9,50.0,29.78,NNE,17,2.0,2.0,90,0.00,,,0.02,Wunderground v.1.15,2013-06-07 04:05:00,
2013-06-06 23:35:00,53.3,50.7,29.78,North,350,1.0,2.0,91,0.00,,,0.02,Wunderground v.1.15,2013-06-07 04:35:00,